| time (UTC) | temp C | wind direction | speed KPH | gust KPH | rain 1hr cm | rain 24hr cm | rain mn cm | humidity % | barometer mb |
| 20260502195005 | 12 | 125 | 0.0 | 0.0 | 0.00 | 0.15 | 0.15 | 78 | 1004.8 |
| 20260502194505 | 12 | 340 | 0.0 | 0.0 | 0.00 | 0.15 | 0.15 | 79 | 1005.1 |
| 20260502194007 | 12 | 172 | 0.0 | 3.2 | 0.00 | 0.15 | 0.15 | 79 | 1004.7 |
| 20260502193005 | 12 | 165 | 0.0 | 3.2 | 0.00 | 0.15 | 0.15 | 78 | 1005.1 |
| 20260502192505 | 12 | 95 | 0.0 | 3.2 | 0.00 | 0.15 | 0.15 | 78 | 1004.7 |
| 20260502191506 | 12 | 113 | 0.0 | 3.2 | 0.00 | 0.15 | 0.15 | 78 | 1005.1 |
| 20260502191006 | 12 | 36 | 0.0 | 3.2 | 0.00 | 0.15 | 0.15 | 78 | 1004.7 |
| 20260502190506 | 13 | 114 | 1.6 | 3.2 | 0.00 | 0.15 | 0.15 | 78 | 1004.7 |
| 20260502190005 | 13 | 308 | 0.0 | 0.0 | 0.00 | 0.15 | 0.15 | 77 | 1004.7 |
| 20260502185506 | 13 | 158 | 0.0 | 0.0 | 0.00 | 0.15 | 0.15 | 77 | 1004.7 |
| 20260502185005 | 13 | 198 | 0.0 | 3.2 | 0.00 | 0.15 | 0.15 | 77 | 1004.7 |
| 20260502184005 | 13 | 177 | 0.0 | 0.0 | 0.00 | 0.15 | 0.15 | 77 | 1004.7 |
| 20260502183006 | 13 | 121 | 0.0 | 3.2 | 0.00 | 0.15 | 0.15 | 77 | 1004.7 |
| 20260502182505 | 13 | 176 | 0.0 | 3.2 | 0.00 | 0.15 | 0.15 | 77 | 1004.7 |
| 20260502182005 | 13 | 165 | 0.0 | 0.0 | 0.00 | 0.15 | 0.15 | 77 | 1004.7 |
| 20260502180518 | 13 | 122 | 0.0 | 8.0 | 0.00 | 0.15 | 0.15 | 77 | 1004.7 |
| 20260502170507 | 14 | 338 | 0.0 | 0.0 | 0.00 | 0.15 | 0.15 | 76 | 1005.1 |
| 20260502164012 | 14 | 100 | 1.6 | 3.2 | 0.00 | 0.15 | 0.15 | 76 | 1004.7 |
| 20260502163514 | 14 | 64 | 1.6 | 3.2 | 0.00 | 0.15 | 0.15 | 76 | 1005.1 |
| 20260502162505 | 15 | 197 | 0.0 | 0.0 | 0.00 | 0.15 | 0.15 | 76 | 1005.1 |
| 20260502162005 | 15 | 156 | 0.0 | 0.0 | 0.00 | 0.15 | 0.15 | 75 | 1005.1 |
| 20260502161505 | 15 | 165 | 0.0 | 8.0 | 0.00 | 0.15 | 0.15 | 75 | 1004.7 |
| 20260502161005 | 15 | 64 | 1.6 | 8.0 | 0.00 | 0.15 | 0.15 | 74 | 1005.1 |
| 20260502160505 | 15 | 72 | 0.0 | 0.0 | 0.00 | 0.15 | 0.15 | 74 | 1005.1 |
| 20260502152006 | 14 | 24 | 0.0 | 3.2 | 0.00 | 0.15 | 0.15 | 74 | 1005.4 |
| 20260502151005 | 15 | 130 | 3.2 | 8.0 | 0.00 | 0.15 | 0.15 | 74 | 1005.4 |
| 20260502150505 | 15 | 85 | 4.8 | 8.0 | 0.00 | 0.15 | 0.15 | 74 | 1005.4 |
| 20260502130505 | 18 | 202 | 3.2 | 8.0 | 0.00 | 0.15 | 0.15 | 60 | 1006.1 |
| 20260502123505 | 17 | 193 | 9.7 | 16.1 | 0.00 | 0.15 | 0.15 | 58 | 1006.1 |
| 20260502123006 | 17 | 290 | 8.0 | 12.9 | 0.00 | 0.15 | 0.15 | 59 | 1006.1 |
| 20260502122005 | 17 | 213 | 1.6 | 8.0 | 0.00 | 0.15 | 0.15 | 63 | 1006.1 |
| 20260502121505 | 17 | 222 | 1.6 | 3.2 | 0.00 | 0.15 | 0.15 | 63 | 1006.1 |
| 20260502120505 | 18 | 260 | 4.8 | 16.1 | 0.00 | 0.15 | 0.15 | 63 | 1006.1 |
| 20260502115505 | 18 | 299 | 3.2 | 12.9 | 0.00 | 0.15 | 0.15 | 62 | 1006.1 |
| 20260502115006 | 18 | 285 | 3.2 | 8.0 | 0.00 | 0.15 | 0.15 | 61 | 1006.4 |
| 20260502114505 | 18 | 185 | 3.2 | 16.1 | 0.00 | 0.15 | 0.15 | 61 | 1006.4 |
| 20260502113506 | 17 | 206 | 3.2 | 12.9 | 0.00 | 0.15 | 0.15 | 64 | 1006.1 |
| 20260502113005 | 17 | 298 | 9.7 | 12.9 | 0.00 | 0.15 | 0.15 | 63 | 1006.4 |
| 20260502112505 | 17 | 303 | 4.8 | 8.0 | 0.00 | 0.15 | 0.15 | 63 | 1006.4 |
| 20260502112005 | 17 | 303 | 3.2 | 8.0 | 0.00 | 0.15 | 0.15 | 63 | 1006.4 |
| 20260502111505 | 17 | 309 | 3.2 | 8.0 | 0.00 | 0.15 | 0.15 | 63 | 1006.4 |
| 20260502111008 | 17 | 329 | 3.2 | 8.0 | 0.00 | 0.15 | 0.15 | 65 | 1006.4 |
| 20260502110005 | 17 | 236 | 4.8 | 20.9 | 0.00 | 0.15 | 0.15 | 65 | 1006.1 |
| 20260502105505 | 17 | 267 | 11.3 | 20.9 | 0.00 | 0.15 | 0.15 | 65 | 1006.1 |
| 20260502105005 | 17 | 221 | 1.6 | 12.9 | 0.00 | 0.15 | 0.15 | 66 | 1006.1 |
| 20260502104505 | 17 | 301 | 9.7 | 12.9 | 0.00 | 0.15 | 0.15 | 66 | 1006.1 |
| 20260502104005 | 17 | 294 | 4.8 | 12.9 | 0.00 | 0.15 | 0.15 | 66 | 1006.4 |
| 20260502103506 | 16 | 293 | 1.6 | 8.0 | 0.00 | 0.15 | 0.15 | 67 | 1006.4 |
| 20260502103015 | 16 | 309 | 3.2 | 8.0 | 0.00 | 0.15 | 0.15 | 66 | 1006.4 |
| 20260502102505 | 16 | 215 | 4.8 | 12.9 | 0.00 | 0.15 | 0.15 | 66 | 1006.4 |
| 20260502102005 | 16 | 265 | 8.0 | 12.9 | 0.00 | 0.15 | 0.15 | 67 | 1006.4 |
| 20260502101506 | 16 | 287 | 8.0 | 8.0 | 0.00 | 0.15 | 0.15 | 67 | 1006.4 |
| 20260502101005 | 16 | 287 | 8.0 | 8.0 | 0.00 | 0.15 | 0.15 | 67 | 1006.4 |
| 20260502091505 | 15 | 297 | 8.0 | 20.9 | 0.00 | 0.15 | 0.15 | 71 | 1006.8 |
| 20260502091005 | 15 | 101 | 4.8 | 8.0 | 0.00 | 0.15 | 0.15 | 71 | 1006.4 |
| 20260502090505 | 15 | 325 | 4.8 | 8.0 | 0.00 | 0.15 | 0.15 | 71 | 1006.8 |
| 20260502071506 | 12 | 213 | 8.0 | 16.1 | 0.00 | 0.15 | 0.15 | 79 | 1006.4 |
| 20260502071005 | 11 | 246 | 9.7 | 16.1 | 0.00 | 0.15 | 0.15 | 79 | 1006.4 |
| 20260502070505 | 11 | 214 | 9.7 | 16.1 | 0.00 | 0.15 | 0.15 | 81 | 1006.8 |
| 20260502070005 | 11 | 295 | 4.8 | 12.9 | 0.00 | 0.15 | 0.15 | 82 | 1006.4 |
| 20260502064505 | 10 | 235 | 4.8 | 12.9 | 0.00 | 0.15 | 0.15 | 84 | 1006.4 |
| 20260502064006 | 10 | 207 | 4.8 | 12.9 | 0.00 | 0.15 | 0.15 | 85 | 1006.4 |
| 20260502063505 | 10 | 204 | 4.8 | 8.0 | 0.00 | 0.15 | 0.15 | 85 | 1006.8 |
| 20260502063005 | 10 | 278 | 3.2 | 20.9 | 0.00 | 0.15 | 0.15 | 86 | 1006.4 |
| 20260502062505 | 10 | 239 | 9.7 | 20.9 | 0.00 | 0.15 | 0.15 | 87 | 1006.4 |
| 20260502062005 | 10 | 249 | 4.8 | 8.0 | 0.00 | 0.15 | 0.15 | 87 | 1006.4 |
| 20260502061005 | 10 | 217 | 9.7 | 20.9 | 0.00 | 0.15 | 0.15 | 87 | 1006.8 |
| 20260502060505 | 10 | 234 | 9.7 | 20.9 | 0.00 | 0.15 | 0.15 | 87 | 1006.8 |
| 20260502060005 | 10 | 209 | 8.0 | 12.9 | 0.00 | 0.15 | 0.15 | 87 | 1006.8 |
| 20260502055505 | 10 | 198 | 4.8 | 12.9 | 0.00 | 0.15 | 0.15 | 88 | 1006.8 |
| 20260502054504 | 9 | 202 | 1.6 | 12.9 | 0.00 | 0.15 | 0.15 | 88 | 1006.8 |
| 20260502054005 | 9 | 227 | 3.2 | 12.9 | 0.00 | 0.15 | 0.15 | 89 | 1006.8 |
| 20260502053505 | 9 | 188 | 4.8 | 12.9 | 0.00 | 0.15 | 0.15 | 90 | 1006.4 |
| 20260502053005 | 8 | 227 | 4.8 | 8.0 | 0.00 | 0.15 | 0.15 | 90 | 1006.4 |
| 20260502052505 | 8 | 171 | 1.6 | 3.2 | 0.00 | 0.15 | 0.15 | 91 | 1006.8 |
| 20260502052005 | 8 | 212 | 0.0 | 3.2 | 0.00 | 0.15 | 0.15 | 91 | 1007.1 |
| 20260502051505 | 8 | 241 | 1.6 | 8.0 | 0.00 | 0.15 | 0.15 | 91 | 1007.1 |
| 20260502051005 | 8 | 233 | 3.2 | 8.0 | 0.00 | 0.15 | 0.15 | 91 | 1006.9 |
| 20260502050505 | 8 | 231 | 1.6 | 8.0 | 0.00 | 0.15 | 0.15 | 91 | 1006.8 |
| 20260502050005 | 9 | 229 | 1.6 | 12.9 | 0.00 | 0.15 | 0.15 | 91 | 1006.9 |
| 20260502045505 | 9 | 218 | 3.2 | 12.9 | 0.00 | 0.15 | 0.15 | 91 | 1007.0 |
| 20260502045005 | 9 | 206 | 3.2 | 8.0 | 0.00 | 0.15 | 0.15 | 91 | 1006.8 |
| 20260502044505 | 9 | 233 | 1.6 | 8.0 | 0.00 | 0.15 | 0.15 | 91 | 1007.1 |
| 20260502044005 | 9 | 247 | 3.2 | 8.0 | 0.00 | 0.15 | 0.15 | 92 | 1006.8 |
| 20260502043506 | 9 | 254 | 3.2 | 8.0 | 0.00 | 0.15 | 0.15 | 92 | 1007.1 |
| 20260502043005 | 9 | 223 | 3.2 | 8.0 | 0.00 | 0.15 | 0.15 | 92 | 1006.8 |
| 20260502041505 | 9 | 222 | 1.6 | 3.2 | 0.00 | 0.15 | 0.15 | 92 | 1007.1 |
| 20260502041005 | 9 | 197 | 1.6 | 3.2 | 0.00 | 0.15 | 0.15 | 92 | 1007.1 |
| 20260502040005 | 10 | 232 | 1.6 | 3.2 | 0.00 | 0.15 | 0.15 | 92 | 1007.1 |
| 20260502035005 | 10 | 211 | 0.0 | 3.2 | 0.00 | 0.15 | 0.15 | 92 | 1007.1 |
| 20260502034505 | 10 | 214 | 1.6 | 3.2 | 0.00 | 0.15 | 0.15 | 92 | 1007.1 |
| 20260502033506 | 10 | 208 | 0.0 | 3.2 | 0.00 | 0.15 | 0.15 | 92 | 1007.1 |
| 20260502033005 | 10 | 256 | 0.0 | 3.2 | 0.00 | 0.15 | 0.15 | 93 | 1007.1 |
| 20260502032505 | 10 | 217 | 1.6 | 3.2 | 0.00 | 0.15 | 0.15 | 93 | 1007.1 |
| 20260502032006 | 10 | 257 | 0.0 | 3.2 | 0.00 | 0.15 | 0.15 | 93 | 1007.1 |
| 20260502031505 | 10 | 208 | 0.0 | 3.2 | 0.00 | 0.15 | 0.15 | 93 | 1007.1 |
| 20260502031006 | 10 | 220 | 0.0 | 3.2 | 0.00 | 0.15 | 0.15 | 93 | 1007.1 |
| 20260502030505 | 10 | 233 | 0.0 | 3.2 | 0.00 | 0.15 | 0.15 | 93 | 1007.1 |
| 20260502030005 | 10 | 269 | 1.6 | 3.2 | 0.00 | 0.15 | 0.15 | 93 | 1007.1 |
| 20260502025505 | 10 | 228 | 0.0 | 0.0 | 0.00 | 0.15 | 0.15 | 93 | 1007.5 |
| 20260502025005 | 10 | 281 | 0.0 | 3.2 | 0.00 | 0.15 | 0.15 | 93 | 1007.5 |
| 20260502024005 | 11 | 155 | 0.0 | 3.2 | 0.00 | 0.15 | 0.15 | 92 | 1007.5 |
| 20260502023505 | 11 | 202 | 0.0 | 3.2 | 0.00 | 0.15 | 0.15 | 92 | 1007.5 |
| 20260502023005 | 11 | 238 | 1.6 | 3.2 | 0.00 | 0.15 | 0.15 | 93 | 1007.5 |
| 20260502022505 | 11 | 215 | 0.0 | 3.2 | 0.00 | 0.15 | 0.15 | 93 | 1007.5 |
| 20260502022005 | 11 | 245 | 0.0 | 3.2 | 0.00 | 0.15 | 0.15 | 92 | 1007.8 |
| 20260502021505 | 11 | 218 | 0.0 | 3.2 | 0.00 | 0.15 | 0.15 | 92 | 1007.5 |
| 20260502021005 | 11 | 241 | 0.0 | 0.0 | 0.00 | 0.15 | 0.15 | 92 | 1007.5 |
| 20260502020505 | 11 | 224 | 0.0 | 0.0 | 0.00 | 0.15 | 0.15 | 92 | 1007.6 |
| 20260502015505 | 11 | 269 | 0.0 | 0.0 | 0.00 | 0.15 | 0.15 | 92 | 1007.8 |
| 20260502015006 | 11 | 264 | 0.0 | 0.0 | 0.00 | 0.15 | 0.15 | 92 | 1007.8 |
| 20260502014505 | 11 | 251 | 0.0 | 0.0 | 0.00 | 0.15 | 0.15 | 92 | 1007.8 |
| 20260502013505 | 11 | 205 | 0.0 | 0.0 | 0.00 | 0.15 | 0.15 | 91 | 1007.8 |
| 20260502013006 | 11 | 302 | 0.0 | 0.0 | 0.00 | 0.15 | 0.15 | 91 | 1008.1 |
| 20260502012505 | 11 | 218 | 0.0 | 0.0 | 0.00 | 0.15 | 0.15 | 91 | 1008.1 |
| 20260502012005 | 11 | 182 | 0.0 | 0.0 | 0.00 | 0.15 | 0.15 | 91 | 1008.1 |
| 20260502011505 | 11 | 223 | 0.0 | 0.0 | 0.05 | 0.15 | 0.15 | 91 | 1008.1 |
| 20260502011005 | 11 | 297 | 0.0 | 0.0 | 0.10 | 0.15 | 0.15 | 90 | 1008.1 |
| 20260502010506 | 12 | 109 | 0.0 | 0.0 | 0.10 | 0.15 | 0.15 | 90 | 1008.1 |
| 20260502010005 | 12 | 299 | 0.0 | 0.0 | 0.13 | 0.15 | 0.15 | 90 | 1008.5 |
| 20260502005505 | 12 | 283 | 0.0 | 0.0 | 0.15 | 0.15 | 0.15 | 90 | 1008.5 |
| 20260502004505 | 12 | 273 | 0.0 | 0.0 | 0.15 | 0.15 | 0.15 | 89 | 1008.5 |
| 20260502004005 | 12 | 244 | 0.0 | 0.0 | 0.15 | 0.15 | 0.15 | 89 | 1008.5 |
| 20260502003505 | 12 | 72 | 0.0 | 0.0 | 0.15 | 0.15 | 0.15 | 88 | 1008.5 |
| 20260502003005 | 12 | 207 | 0.0 | 0.0 | 0.15 | 0.15 | 0.15 | 88 | 1008.5 |
| 20260502002505 | 12 | 285 | 0.0 | 0.0 | 0.15 | 0.15 | 0.15 | 88 | 1008.5 |
| 20260502002005 | 12 | 213 | 0.0 | 0.0 | 0.15 | 0.15 | 0.15 | 87 | 1008.8 |
| 20260502001005 | 12 | 217 | 0.0 | 3.2 | 0.05 | 0.05 | 0.05 | 86 | 1008.5 |
| 20260502000505 | 12 | 291 | 1.6 | 3.2 | 0.05 | 0.05 | 0.05 | 85 | 1008.5 |
| 20260501235504 | 13 | 302 | 1.6 | 3.2 | 0.00 | 0.00 | 0.00 | 82 | 1008.5 |
| 20260501235005 | 13 | 212 | 0.0 | 0.0 | 0.00 | 0.00 | 0.00 | 81 | 1008.5 |
| 20260501234505 | 13 | 252 | 0.0 | 3.2 | 0.00 | 0.00 | 0.00 | 81 | 1008.8 |
| 20260501234005 | 13 | 224 | 0.0 | 3.2 | 0.00 | 0.00 | 0.00 | 81 | 1008.8 |
| 20260501233505 | 13 | 259 | 0.0 | 0.0 | 0.00 | 0.00 | 0.00 | 80 | 1008.5 |
| 20260501233005 | 13 | 200 | 0.0 | 3.2 | 0.00 | 0.00 | 0.00 | 80 | 1008.8 |
| 20260501232504 | 13 | 263 | 0.0 | 3.2 | 0.00 | 0.00 | 0.00 | 80 | 1008.5 |
| 20260501231505 | 13 | 296 | 1.6 | 3.2 | 0.00 | 0.00 | 0.00 | 79 | 1008.8 |
| 20260501231005 | 13 | 276 | 0.0 | 3.2 | 0.00 | 0.00 | 0.00 | 79 | 1008.8 |
| 20260501230506 | 13 | 297 | 1.6 | 3.2 | 0.00 | 0.00 | 0.00 | 78 | 1008.8 |
| 20260501225505 | 13 | 266 | 0.0 | 3.2 | 0.00 | 0.00 | 0.00 | 77 | 1008.6 |
| 20260501225005 | 13 | 283 | 0.0 | 3.2 | 0.00 | 0.00 | 0.00 | 77 | 1008.5 |
| 20260501224505 | 13 | 268 | 0.0 | 3.2 | 0.00 | 0.00 | 0.00 | 77 | 1008.5 |
| 20260501223505 | 13 | 247 | 0.0 | 3.2 | 0.00 | 0.00 | 0.00 | 77 | 1008.5 |
| 20260501223005 | 13 | 302 | 0.0 | 3.2 | 0.00 | 0.00 | 0.00 | 77 | 1008.5 |
| 20260501222505 | 13 | 304 | 1.6 | 8.0 | 0.00 | 0.00 | 0.00 | 77 | 1008.8 |
| 20260501222005 | 13 | 307 | 3.2 | 8.0 | 0.00 | 0.00 | 0.00 | 77 | 1008.8 |
| 20260501221504 | 13 | 302 | 0.0 | 3.2 | 0.00 | 0.00 | 0.00 | 77 | 1008.5 |
| 20260501221005 | 13 | 288 | 0.0 | 3.2 | 0.00 | 0.00 | 0.00 | 77 | 1008.5 |
| 20260501220505 | 13 | 277 | 1.6 | 3.2 | 0.00 | 0.00 | 0.00 | 77 | 1008.5 |
| 20260501220006 | 13 | 233 | 0.0 | 0.0 | 0.00 | 0.00 | 0.00 | 76 | 1008.5 |
| 20260501215505 | 13 | 211 | 0.0 | 3.2 | 0.00 | 0.00 | 0.00 | 76 | 1008.5 |
| 20260501215005 | 13 | 287 | 0.0 | 3.2 | 0.00 | 0.00 | 0.00 | 76 | 1008.8 |
| 20260501213505 | 13 | 248 | 0.0 | 0.0 | 0.00 | 0.00 | 0.00 | 76 | 1008.8 |
| 20260501212505 | 14 | 305 | 0.0 | 3.2 | 0.00 | 0.00 | 0.00 | 75 | 1008.8 |
| 20260501212005 | 14 | 292 | 1.6 | 8.0 | 0.00 | 0.00 | 0.00 | 75 | 1008.8 |
| 20260501211505 | 14 | 312 | 3.2 | 8.0 | 0.00 | 0.00 | 0.00 | 75 | 1008.8 |
| 20260501211005 | 14 | 288 | 3.2 | 8.0 | 0.00 | 0.00 | 0.00 | 74 | 1008.8 |
| 20260501210505 | 14 | 335 | 0.0 | 0.0 | 0.00 | 0.00 | 0.00 | 74 | 1008.8 |
| 20260501205504 | 14 | 214 | 0.0 | 3.2 | 0.00 | 0.00 | 0.00 | 73 | 1009.1 |
| 20260501205005 | 15 | 330 | 0.0 | 3.2 | 0.00 | 0.00 | 0.00 | 73 | 1008.8 |
| 20260501204505 | 15 | 269 | 0.0 | 3.2 | 0.00 | 0.00 | 0.00 | 73 | 1008.8 |
| 20260501204005 | 15 | 235 | 0.0 | 3.2 | 0.00 | 0.00 | 0.00 | 72 | 1008.8 |
| 20260501203505 | 15 | 312 | 1.6 | 3.2 | 0.00 | 0.00 | 0.00 | 72 | 1008.8 |
| 20260501203005 | 15 | 188 | 0.0 | 0.0 | 0.00 | 0.00 | 0.00 | 71 | 1008.8 |
| 20260501202505 | 15 | 262 | 0.0 | 3.2 | 0.00 | 0.00 | 0.00 | 70 | 1008.8 |
| 20260501201505 | 15 | 282 | 0.0 | 3.2 | 0.00 | 0.00 | 0.00 | 69 | 1008.8 |
| 20260501201005 | 15 | 277 | 1.6 | 8.0 | 0.00 | 0.00 | 0.00 | 69 | 1008.8 |
| 20260501200505 | 15 | 294 | 4.8 | 8.0 | 0.00 | 0.00 | 0.00 | 68 | 1008.5 |
| 20260501200005 | 15 | 284 | 0.0 | 8.0 | 0.00 | 0.00 | 0.00 | 68 | 1008.5 |
| 20260501195505 | 15 | 290 | 3.2 | 8.0 | 0.00 | 0.00 | 0.00 | 67 | 1008.5 |